�������l�o���
Date,Time,MP-1(��Sv/h),MP-2(��Sv/h),MP-3(��Sv/h),MP-4(��Sv/h),MP-5(��Sv/h),MP-6(��Sv/h),MP-7(��Sv/h),MP-8(��Sv/h),����,����(m/s),���J
2023/03/02,00:00,0.575,0.833,0.508,1.062,0.741,0.327,0.587,0.559,��,6.4,��
2023/03/02,00:10,0.575,0.833,0.508,1.061,0.741,0.328,0.588,0.558,��쐼,6.2,��
2023/03/02,00:20,0.575,0.834,0.509,1.064,0.740,0.327,0.589,0.557,��쐼,6.3,��
2023/03/02,00:30,0.576,0.832,0.510,1.062,0.738,0.328,0.587,0.557,��쐼,5.5,��
2023/03/02,00:40,0.577,0.832,0.508,1.063,0.741,0.328,0.588,0.558,��쐼,5.0,��
2023/03/02,00:50,0.576,0.835,0.507,1.060,0.737,0.326,0.587,0.558,��쐼,3.8,��
2023/03/02,01:00,0.577,0.835,0.508,1.062,0.740,0.329,0.589,0.559,��쐼,3.3,��
2023/03/02,01:10,0.578,0.833,0.507,1.060,0.740,0.327,0.588,0.557,��쐼,3.4,��
2023/03/02,01:20,0.577,0.836,0.508,1.060,0.740,0.328,0.588,0.557,��쐼,2.6,��
2023/03/02,01:30,0.577,0.834,0.507,1.063,0.740,0.328,0.587,0.558,��쐼,4.3,��
2023/03/02,01:40,0.576,0.835,0.508,1.062,0.740,0.327,0.589,0.560,��쐼,5.8,��
2023/03/02,01:50,0.577,0.833,0.509,1.060,0.741,0.327,0.587,0.557,�쐼,5.1,��
2023/03/02,02:00,0.577,0.833,0.507,1.062,0.741,0.327,0.588,0.558,�쐼,4.0,��
2023/03/02,02:10,0.577,0.833,0.508,1.062,0.741,0.327,0.588,0.558,��,3.3,��
2023/03/02,02:20,0.578,0.833,0.508,1.061,0.740,0.327,0.585,0.557,�k��,2.6,��
2023/03/02,02:30,0.576,0.833,0.508,1.062,0.739,0.329,0.586,0.558,�k�k��,1.8,��
2023/03/02,02:40,0.577,0.834,0.507,1.063,0.741,0.328,0.589,0.559,�k�k��,2.8,��
2023/03/02,02:50,0.575,0.834,0.507,1.062,0.743,0.327,0.588,0.558,�k��,2.2,��
2023/03/02,03:00,0.577,0.833,0.510,1.062,0.742,0.328,0.588,0.557,���k��,4.0,��
2023/03/02,03:10,0.577,0.832,0.508,1.062,0.739,0.326,0.588,0.557,�k��,4.1,��
2023/03/02,03:20,0.576,0.832,0.508,1.061,0.739,0.327,0.588,0.560,���k��,3.0,��
2023/03/02,03:30,0.577,0.832,0.507,1.060,0.741,0.327,0.586,0.558,�k��,3.0,��
2023/03/02,03:40,0.576,0.831,0.508,1.064,0.740,0.328,0.589,0.559,�k��,3.2,��
2023/03/02,03:50,0.576,0.834,0.507,1.062,0.738,0.327,0.588,0.558,�k��,3.6,��
2023/03/02,04:00,0.576,0.834,0.509,1.060,0.740,0.326,0.588,0.558,�k��,5.0,��
2023/03/02,04:10,0.575,0.835,0.507,1.063,0.738,0.327,0.587,0.558,�k��,5.2,��
2023/03/02,04:20,0.575,0.832,0.507,1.061,0.740,0.327,0.587,0.558,�k��,5.9,��
2023/03/02,04:30,0.576,0.834,0.507,1.062,0.740,0.327,0.587,0.558,�k��,5.9,��
2023/03/02,04:40,0.577,0.832,0.508,1.061,0.740,0.328,0.588,0.558,���k��,5.3,��
2023/03/02,04:50,0.577,0.832,0.507,1.061,0.741,0.327,0.588,0.558,���k��,5.4,��
2023/03/02,05:00,0.574,0.831,0.508,1.061,0.739,0.326,0.588,0.557,���k��,5.1,��
2023/03/02,05:10,0.576,0.833,0.506,1.061,0.738,0.326,0.588,0.558,��,3.4,��
2023/03/02,05:20,0.576,0.831,0.506,1.062,0.739,0.326,0.588,0.558,��,3.0,��
2023/03/02,05:30,0.577,0.833,0.507,1.060,0.739,0.327,0.586,0.558,��,3.4,��
2023/03/02,05:40,0.575,0.833,0.507,1.062,0.740,0.327,0.588,0.557,���k��,3.6,��
2023/03/02,05:50,0.576,0.834,0.508,1.062,0.736,0.326,0.589,0.557,�k��,4.5,��
2023/03/02,06:00,0.575,0.832,0.507,1.061,0.738,0.327,0.587,0.559,���k��,5.3,��
2023/03/02,06:10,0.576,0.833,0.508,1.062,0.739,0.327,0.588,0.559,���k��,5.1,��
2023/03/02,06:20,0.575,0.832,0.508,1.063,0.739,0.327,0.587,0.560,���k��,5.5,��
2023/03/02,06:30,0.576,0.833,0.508,1.062,0.739,0.327,0.587,0.557,��,5.8,��
2023/03/02,06:40,0.576,0.832,0.508,1.060,0.740,0.326,0.588,0.556,���쐼,6.0,��
2023/03/02,06:50,0.577,0.834,0.507,1.063,0.739,0.325,0.589,0.559,���쐼,6.3,��
2023/03/02,07:00,0.575,0.833,0.506,1.063,0.739,0.326,0.587,0.558,��,5.6,��
2023/03/02,07:10,0.577,0.832,0.508,1.062,0.740,0.326,0.588,0.558,��,5.3,��
2023/03/02,07:20,0.576,0.833,0.507,1.064,0.740,0.328,0.587,0.556,���k��,5.9,��
2023/03/02,07:30,0.576,0.833,0.506,1.064,0.740,0.326,0.588,0.558,���k��,6.3,��
2023/03/02,07:40,0.575,0.834,0.507,1.062,0.739,0.326,0.587,0.557,���k��,6.6,��
2023/03/02,07:50,0.576,0.833,0.508,1.062,0.739,0.327,0.587,0.559,���k��,7.5,��
2023/03/02,08:00,0.576,0.834,0.507,1.063,0.740,0.327,0.588,0.556,���k��,8.6,��
2023/03/02,08:10,0.577,0.833,0.506,1.062,0.738,0.327,0.588,0.556,���k��,8.5,��
2023/03/02,08:20,0.576,0.833,0.506,1.064,0.740,0.325,0.586,0.558,�k��,4.8,�L
2023/03/02,08:30,0.578,0.830,0.508,1.061,0.740,0.328,0.588,0.556,�k,3.8,�L
2023/03/02,08:40,0.575,0.830,0.506,1.062,0.739,0.326,0.586,0.558,�k,3.9,��
2023/03/02,08:50,0.578,0.832,0.508,1.062,0.739,0.327,0.586,0.558,�k,3.4,��
2023/03/02,09:00,0.577,0.831,0.506,1.064,0.739,0.327,0.588,0.557,�k�k��,3.5,��
2023/03/02,09:10,0.578,0.832,0.506,1.064,0.740,0.326,0.588,0.558,�k�k��,4.1,��
2023/03/02,09:20,0.577,0.832,0.507,1.062,0.740,0.327,0.589,0.558,�k,2.8,��
2023/03/02,09:30,0.577,0.833,0.507,1.064,0.741,0.328,0.588,0.559,�k,4.2,��
2023/03/02,09:40,0.578,0.832,0.507,1.061,0.738,0.328,0.589,0.558,�k,4.7,��
2023/03/02,09:50,0.576,0.834,0.507,1.064,0.740,0.327,0.588,0.560,�k,6.2,��
2023/03/02,10:00,0.578,0.833,0.508,1.063,0.741,0.327,0.589,0.558,�k,5.2,��
2023/03/02,10:10,0.576,0.833,0.507,1.063,0.740,0.327,0.588,0.557,�k,4.5,��
2023/03/02,10:20,0.576,0.833,0.508,1.063,0.740,0.326,0.588,0.559,�k,4.2,��
2023/03/02,10:30,0.577,0.833,0.508,1.064,0.738,0.328,0.588,0.559,�k�k��,4.4,��
2023/03/02,10:40,0.575,0.832,0.508,1.061,0.741,0.327,0.588,0.558,�k�k��,4.7,��
2023/03/02,10:50,0.576,0.833,0.508,1.061,0.739,0.326,0.588,0.558,�k�k��,5.2,��
2023/03/02,11:00,0.575,0.831,0.505,1.062,0.740,0.326,0.588,0.558,�k,5.4,��
2023/03/02,11:10,0.576,0.833,0.508,1.063,0.740,0.326,0.587,0.557,�k,5.2,�L
2023/03/02,11:20,0.575,0.833,0.507,1.061,0.740,0.328,0.588,0.559,�k,6.4,�L
2023/03/02,11:30,0.577,0.833,0.508,1.064,0.740,0.327,0.589,0.560,�k�k��,5.7,�L
2023/03/02,11:40,0.577,0.834,0.509,1.064,0.739,0.327,0.587,0.559,�k,6.3,��
2023/03/02,11:50,0.577,0.834,0.508,1.061,0.742,0.327,0.587,0.559,�k,6.4,��
2023/03/02,12:00,0.577,0.834,0.508,1.061,0.739,0.327,0.587,0.559,�k,5.7,�L
2023/03/02,12:10,0.577,0.834,0.509,1.064,0.739,0.327,0.587,0.560,�k,9.0,�L
2023/03/02,12:20,0.577,0.832,0.507,1.064,0.739,0.328,0.586,0.559,�k,10.5,�L
2023/03/02,12:30,0.576,0.829,0.509,1.064,0.738,0.327,0.587,0.559,�k�k��,9.3,�L
2023/03/02,12:40,0.577,0.831,0.508,1.064,0.737,0.327,0.588,0.558,�k�k��,8.8,�L
2023/03/02,12:50,0.577,0.831,0.508,1.063,0.738,0.328,0.588,0.557,�k�k��,7.4,�L
2023/03/02,13:00,0.576,0.830,0.509,1.064,0.738,0.327,0.587,0.559,�k�k��,6.1,��
2023/03/02,13:10,0.577,0.831,0.507,1.062,0.737,0.327,0.588,0.560,�k��,3.6,��
2023/03/02,13:20,0.577,0.832,0.507,1.063,0.740,0.328,0.587,0.557,�k�k��,7.6,��
2023/03/02,13:30,0.578,0.835,0.508,1.063,0.741,0.328,0.588,0.558,�k,7.8,��
2023/03/02,13:40,0.579,0.835,0.507,1.065,0.741,0.327,0.587,0.559,�k�k��,8.6,��
2023/03/02,13:50,0.576,0.831,0.510,1.063,0.740,0.328,0.588,0.559,�k��,7.3,��
2023/03/02,14:00,0.578,0.833,0.507,1.061,0.741,0.328,0.588,0.560,�k��,7.8,��
2023/03/02,14:10,0.578,0.832,0.507,1.063,0.740,0.328,0.588,0.559,�k��,8.0,��
2023/03/02,14:20,0.578,0.832,0.508,1.063,0.741,0.328,0.586,0.560,�k��,8.7,��
2023/03/02,14:30,0.576,0.829,0.507,1.063,0.741,0.327,0.588,0.559,�k��,7.8,��
2023/03/02,14:40,0.578,0.832,0.508,1.063,0.740,0.328,0.587,-,�k��,6.8,��
2023/03/02,14:50,0.577,0.835,0.507,1.063,0.740,0.327,0.588,-,�k�k��,10.0,��
2023/03/02,15:00,0.577,0.835,0.508,1.062,0.742,0.327,0.587,-,�k�k��,9.2,��
2023/03/02,15:10,0.576,0.835,0.508,1.063,0.742,0.328,0.587,-,�k�k��,6.8,��
2023/03/02,15:20,0.577,0.835,0.506,1.064,0.741,0.327,0.587,-,�k��,7.7,��
2023/03/02,15:30,0.576,0.832,0.508,1.062,0.742,0.326,0.587,-,�k��,7.5,��
2023/03/02,15:40,0.578,0.834,0.507,1.065,0.742,0.327,0.589,-,�k��,6.9,��
2023/03/02,15:50,0.578,0.835,0.507,1.066,0.740,0.327,0.588,-,�k��,6.2,��
2023/03/02,16:00,0.577,0.834,0.508,1.064,0.744,0.327,0.587,0.559,�k��,6.7,��
2023/03/02,16:10,0.578,0.835,0.509,1.063,0.741,0.328,0.586,0.559,�k�k��,6.0,��
2023/03/02,16:20,0.575,0.834,0.509,1.061,0.743,0.328,0.587,0.559,�k�k��,7.4,��
2023/03/02,16:30,0.577,0.835,0.508,1.064,0.741,0.326,0.587,0.559,�k�k��,8.1,��
2023/03/02,16:40,0.577,0.835,0.507,1.065,0.740,0.326,0.587,0.560,�k�k��,6.4,��
2023/03/02,16:50,0.578,0.833,0.507,1.062,0.740,0.327,0.589,0.558,�k�k��,7.5,��
2023/03/02,17:00,0.575,0.834,0.506,1.063,0.740,0.325,0.589,0.559,�k�k��,10.0,��
2023/03/02,17:10,0.578,0.835,0.508,1.064,0.739,0.327,0.588,0.558,�k,9.9,��
2023/03/02,17:20,0.576,0.833,0.507,1.064,0.742,0.326,0.589,0.558,�k�k��,12.7,��
2023/03/02,17:30,0.576,0.834,0.506,1.064,0.741,0.326,0.587,0.561,�k�k��,13.0,��
2023/03/02,17:40,0.577,0.834,0.507,1.066,0.741,0.326,0.586,0.558,�k�k��,10.3,��
2023/03/02,17:50,0.575,0.832,0.507,1.065,0.742,0.326,0.585,0.557,�k�k��,9.1,��
2023/03/02,18:00,0.574,0.834,0.507,1.065,0.738,0.327,0.585,0.558,�k�k��,8.5,�L
2023/03/02,18:10,0.573,0.834,0.507,1.064,0.741,0.327,0.587,0.559,�k�k��,8.6,��
2023/03/02,18:20,0.574,0.833,0.505,1.062,0.741,0.326,0.585,0.560,�k��,7.8,��
2023/03/02,18:30,0.575,0.833,0.506,1.063,0.740,0.327,0.586,0.559,�k��,9.0,��
2023/03/02,18:40,0.575,0.834,0.506,1.063,0.741,0.326,0.587,0.559,�k��,7.9,��
2023/03/02,18:50,0.575,0.834,0.506,1.063,0.740,0.325,0.586,0.558,�k��,7.7,��
2023/03/02,19:00,0.574,0.832,0.505,1.063,0.740,0.326,0.586,0.557,�k��,10.5,��
2023/03/02,19:10,0.576,0.834,0.505,1.065,0.740,0.326,0.586,0.558,�k��,7.0,��
2023/03/02,19:20,0.574,0.833,0.507,1.063,0.738,0.325,0.587,0.557,�k��,7.5,��
2023/03/02,19:30,0.574,0.832,0.507,1.063,0.741,0.325,0.586,0.556,�k��,7.7,��
2023/03/02,19:40,0.573,0.835,0.506,1.063,0.741,0.326,0.586,0.558,�k��,6.6,��
2023/03/02,19:50,0.575,0.835,0.506,1.062,0.741,0.326,0.588,0.558,�k��,7.8,��
2023/03/02,20:00,0.574,0.833,0.505,1.064,0.740,0.325,0.588,0.556,�k��,8.0,��
2023/03/02,20:10,0.574,0.834,0.507,1.064,0.741,0.325,0.589,0.557,�k��,8.2,��
2023/03/02,20:20,0.575,0.832,0.505,1.061,0.740,0.325,0.588,0.556,�k��,8.4,��
2023/03/02,20:30,0.573,0.835,0.508,1.060,0.742,0.325,0.587,0.556,�k��,8.3,��
2023/03/02,20:40,0.573,0.834,0.504,1.064,0.741,0.325,0.587,0.555,�k��,8.4,��
2023/03/02,20:50,0.572,0.832,0.505,1.061,0.740,0.324,0.586,0.557,�k��,8.6,��
2023/03/02,21:00,0.573,0.833,0.506,1.065,0.740,0.326,0.589,0.557,�k��,8.2,��
2023/03/02,21:10,0.574,0.835,0.506,1.062,0.741,0.326,0.587,0.557,�k��,6.2,��
2023/03/02,21:20,0.573,0.833,0.505,1.064,0.739,0.325,0.589,0.556,�k��,6.1,��
2023/03/02,21:30,0.574,0.835,0.505,1.065,0.740,0.324,0.589,0.557,�k��,7.4,��
2023/03/02,21:40,0.573,0.833,0.505,1.064,0.741,0.325,0.587,0.557,�k��,7.4,��
2023/03/02,21:50,0.572,0.834,0.505,1.062,0.740,0.325,0.588,0.558,�k��,6.5,��
2023/03/02,22:00,0.574,0.833,0.505,1.064,0.738,0.325,0.588,0.556,�k��,6.3,�L
2023/03/02,22:10,0.571,0.833,0.505,1.061,0.739,0.325,0.588,0.556,�k�k��,6.3,��
2023/03/02,22:20,0.572,0.834,0.504,1.063,0.738,0.325,0.588,0.556,�k�k��,5.7,��
2023/03/02,22:30,0.570,0.832,0.505,1.061,0.739,0.326,0.588,0.557,�k��,6.5,��
2023/03/02,22:40,0.573,0.833,0.505,1.063,0.739,0.324,0.587,0.557,�k��,5.5,��
2023/03/02,22:50,0.572,0.833,0.505,1.061,0.739,0.324,0.587,0.556,�k��,5.0,��
2023/03/02,23:00,0.571,0.832,0.505,1.063,0.739,0.325,0.586,0.556,�k��,7.3,��
2023/03/02,23:10,0.571,0.832,0.506,1.062,0.739,0.323,0.586,0.556,�k��,6.8,��
2023/03/02,23:20,0.571,0.835,0.504,1.061,0.738,0.324,0.587,0.556,�k��,5.0,��
2023/03/02,23:30,0.571,0.832,0.506,1.061,0.739,0.321,0.588,0.557,���k��,4.3,��
2023/03/02,23:40,0.572,0.832,0.505,1.062,0.739,0.323,0.587,0.557,�k��,5.5,��
2023/03/02,23:50,0.572,0.834,0.505,1.063,0.739,0.324,0.588,0.555,�k��,6.3,��
